This is the latest recevied weather packets stored in our database for station/object IR1ZYZ-3. If no packets are shown the sender has not sent any weather packets the latest 10 day(s).
| Time | Temp. | Humidity | Pressure | Rain* | Wind** | Luminosity | Snow |
|---|---|---|---|---|---|---|---|
| 1787564802 | 33.33° C | 48% | 1016.3 hPa | - | - | - | - |
| 1787564605 | 33.33° C | 48% | 1016.3 hPa | - | - | - | - |
| 1787563388 | 32.78° C | 47% | 1016.4 hPa | - | - | - | - |
| 1787562791 | 32.22° C | 48% | 1016.5 hPa | - | - | - | - |
| 1787562179 | 32.22° C | 48% | 1016.6 hPa | - | - | - | - |
| 1787561574 | 31.67° C | 49% | 1016.5 hPa | - | - | - | - |
| 1787560969 | 31.11° C | 51% | 1016.6 hPa | - | - | - | - |
| 1787560365 | 30.56° C | 54% | 1016.7 hPa | - | - | - | - |
| 1787559761 | 29.44° C | 56% | 1016.9 hPa | - | - | - | - |
| 1787559156 | 28.33° C | 57% | 1017.1 hPa | - | - | - | - |
| 1787558551 | 27.78° C | 60% | 1017.2 hPa | - | - | - | - |
| 1787557947 | 27.22° C | 66% | 1017.3 hPa | - | - | - | - |
| 1787557342 | 27.22° C | - | - | - | - | - | - |
| 1787556738 | 26.11° C | 67% | 1017.2 hPa | - | - | - | - |
| 1787556133 | 26.11° C | 75% | 1017.1 hPa | - | - | - | - |
| 1787555529 | 25.56° C | 74% | 1017 hPa | - | - | - | - |
| 1787554924 | 25° C | 81% | 1017.1 hPa | - | - | - | - |
| 1787554320 | 25° C | 84% | 1017.2 hPa | - | - | - | - |
| 1787553715 | 23.89° C | 94% | 1017.3 hPa | - | - | - | - |
| 1787553111 | 23.33° C | 94% | 1017.3 hPa | - | - | - | - |
| 1787551907 | 22.78° C | 95% | 1017.5 hPa | - | - | - | - |
| 1787551302 | 22.78° C | 93% | 1017.5 hPa | - | - | - | - |
| 1787550693 | 22.22° C | 10% | - | - | - | - | - |
| 1787550089 | 21.67° C | 10% | - | - | - | - | - |
| 1787548885 | 21.67° C | 10% | - | - | - | - | - |
* Rain since midnight (hover to see other rain measurements)
** Current wind speed in m/s (hover to see current wind gust speed)